Tracking 23764 objects as of 17-Oct-2021
HD Live streaming from Space Station
objects crossing your sky now

IRIDIUM 33 DEB

Track IRIDIUM 33 DEB now!
10-day predictions


NORAD ID: 35739
Int'l Code: 1997-051RS
Perigee: 628.4 km
Apogee: 698.3 km
Inclination: 86.4 °
Period: 97.9 minutes
Semi major axis: 7034 km
RCS: 0.0119 m2 (small)
Launch date: September 14, 1997
Source: United States (US)
Launch site: TYURATAM MISSILE AND SPACE COMPLEX (TTMTR)

Note: This is SATELLITE DEBRIS
aabbcc
Your satellite tracking list
Your tracking list is empty




NASA's NSSDC Master Catalog

Two Line Element Set (TLE):
1 35739U 97051RS  21287.83475971  .00009028  00000-0  14224-2 0  9997
2 35739  86.3913 326.3558 0049713 290.0154  69.5714 14.71526900659867
Source of the keplerian elements: AFSPC